Regional Weather Roundup
Issued by NWS

Home | Current Version | Previous Version | Text Only | Print | Product List | Glossary Off
Versions: 1 2 3 4 5 6 7 8 9 10 11 12 13 14 15 16 17 18 19 20 21 22 23 24 25 26 27 28 29 30 31 32 33 34 35 36 37 38 39 40 41 42 43 44 45 46 47 48 49 50

000
ASUS45 KBOI 230810
RWRID
WEATHER ROUNDUP FOR IDAHO
NATIONAL WEATHER SERVICE BOISE ID
100 AM MST SUN NOV 23 2014

NOTE: "FAIR" INDICATES FEW OR NO CLOUDS BELOW 12000 FEET
WITH NO SIGNIFICANT WEATHER AND/OR OBSTRUCTIONS TO VISIBILITY

IDZ012-014-230900-
SOUTHWEST IDAHO


CITY           SKY/WX    TMP DP  RH WIND       PRES   REMARKS
BOISE          CLEAR     34  28  79 NW7       30.11R WCI  28
CALDWELL       NOT AVBL
MOUNTAIN HOME  CLEAR     35  32  90 NW13      30.11R WCI  26
$$

IDZ016-017-230900-
SOUTHCENTRAL IDAHO


CITY           SKY/WX    TMP DP  RH WIND       PRES   REMARKS
BURLEY         PTCLDY    33  27  78 W20G26    29.96R WCI  21
JEROME         PTCLDY    32  28  85 SW20G30   30.01R WCI  20
TWIN FALLS     CLOUDY    35  26  69 W20G31    30.04R WCI  24
$$

IDZ019>023-230900-
SOUTHEAST IDAHO


CITY           SKY/WX    TMP DP  RH WIND       PRES   REMARKS
IDAHO FALLS    CLOUDY    33  30  88 SW16      29.84R WCI  23
POCATELLO      CLOUDY    34  31  88 W24G31    29.91R WCI  21
REXBURG        CLOUDY    32  28  85 S10       29.84R WCI  24
$$

IDZ006-010-011-018-031-032-230900-
CENTRAL IDAHO MOUNTAINS


CITY           SKY/WX    TMP DP  RH WIND       PRES   REMARKS
MCCALL         FLURRIES  29  24  82 W7        30.01R WCI  22
STANLEY          N/A     27  16  63 N12       29.95R WCI  17
SALMON         CLOUDY    27  25  93 S5        29.91R WCI  21
CHALLIS        LGT SNOW  30  26  85 NW13      29.91S FOG     WCI  20
$$

IDZ002-004-006-007-026-230900-
NORTHERN IDAHO


CITY           SKY/WX    TMP DP  RH WIND       PRES   REMARKS
LEWISTON       CLOUDY    42  33  70 SW10      30.07R
LOWELL           N/A     35  34  96 CALM      30.10R
COEUR D`ALENE  CLOUDY    36  30  80 W5        30.00R WCI  32
MULLAN PASS    FOG       25  23  92 VRB7      29.86R VSB 1/2 WCI  17
$$


USA.gov is the U.S. government's official web portal to all federal, state and local government web resources and services.